Year,Month,Day,Hour,Minute,Value (Times are PST for windspeed in km/hr)
2014,02,19,00,00,0.00
2014,02,19,00,01,0.00
2014,02,19,00,02,0.40
2014,02,19,00,03,4.30
2014,02,19,00,04,1.40
2014,02,19,00,05,0.70
2014,02,19,00,06,1.80
2014,02,19,00,07,0.00
2014,02,19,00,08,0.00
2014,02,19,00,09,0.00
2014,02,19,00,10,0.00
2014,02,19,00,11,0.00
2014,02,19,00,12,0.00
2014,02,19,00,13,0.00
2014,02,19,00,14,2.40
2014,02,19,00,15,0.40
2014,02,19,00,16,0.00
2014,02,19,00,17,0.00
2014,02,19,00,18,0.00
2014,02,19,00,19,0.00
2014,02,19,00,20,0.00
2014,02,19,00,21,0.00
2014,02,19,00,22,0.00
2014,02,19,00,23,0.00
2014,02,19,00,24,0.00
2014,02,19,00,25,3.10
2014,02,19,00,26,4.40
2014,02,19,00,27,0.00
2014,02,19,00,28,0.00
2014,02,19,00,29,0.10
2014,02,19,00,30,0.00
2014,02,19,00,31,0.00
2014,02,19,00,32,0.00
2014,02,19,00,33,0.00
2014,02,19,00,34,0.00
2014,02,19,00,35,0.00
2014,02,19,00,36,0.00
2014,02,19,00,37,0.00
2014,02,19,00,38,0.60
2014,02,19,00,39,1.70
2014,02,19,00,40,0.00
2014,02,19,00,41,0.00
2014,02,19,00,42,0.10
2014,02,19,00,43,0.10
2014,02,19,00,44,4.20
2014,02,19,00,45,0.10
2014,02,19,00,46,1.90
2014,02,19,00,47,1.50
2014,02,19,00,48,0.00
2014,02,19,00,49,2.30
2014,02,19,00,50,5.90
2014,02,19,00,51,1.00
2014,02,19,00,52,0.00
2014,02,19,00,53,0.10
2014,02,19,00,54,0.00
2014,02,19,00,55,3.20
2014,02,19,00,56,2.10
2014,02,19,00,57,7.10
2014,02,19,00,58,1.20
2014,02,19,00,59,2.30
2014,02,19,01,00,2.70
2014,02,19,01,01,3.30
2014,02,19,01,02,2.20
2014,02,19,01,03,0.00
2014,02,19,01,04,0.00
2014,02,19,01,05,0.00
2014,02,19,01,06,0.00
2014,02,19,01,07,0.00
2014,02,19,01,08,0.00
2014,02,19,01,09,0.00
2014,02,19,01,10,0.00
2014,02,19,01,11,0.00
2014,02,19,01,12,0.00
2014,02,19,01,13,0.00
2014,02,19,01,14,0.00
2014,02,19,01,15,0.00
2014,02,19,01,16,0.00
2014,02,19,01,17,0.10
2014,02,19,01,18,0.00
2014,02,19,01,19,0.00
2014,02,19,01,20,0.00
2014,02,19,01,21,0.00
2014,02,19,01,22,0.00
2014,02,19,01,23,0.00
2014,02,19,01,24,0.00
2014,02,19,01,25,0.00
2014,02,19,01,26,0.00
2014,02,19,01,27,0.00
2014,02,19,01,28,1.40
2014,02,19,01,29,0.60
2014,02,19,01,30,0.10
2014,02,19,01,31,0.00
2014,02,19,01,32,0.00
2014,02,19,01,33,0.00
2014,02,19,01,34,0.00
2014,02,19,01,35,0.00
2014,02,19,01,36,0.00
2014,02,19,01,37,2.00
2014,02,19,01,38,0.60
2014,02,19,01,39,0.60
2014,02,19,01,40,0.00
2014,02,19,01,41,0.00
2014,02,19,01,42,0.40
2014,02,19,01,43,1.80
2014,02,19,01,44,0.00
2014,02,19,01,45,0.00
2014,02,19,01,46,0.00
2014,02,19,01,47,0.00
2014,02,19,01,48,0.00
2014,02,19,01,49,0.00
2014,02,19,01,50,1.10
2014,02,19,01,51,0.60
2014,02,19,01,52,0.00
2014,02,19,01,53,0.00
2014,02,19,01,54,2.00
2014,02,19,01,55,0.30
2014,02,19,01,56,0.40
2014,02,19,01,57,2.20
2014,02,19,01,58,6.00
2014,02,19,01,59,0.60
2014,02,19,02,00,0.00
2014,02,19,02,01,1.80
2014,02,19,02,02,2.20
2014,02,19,02,03,0.00
2014,02,19,02,04,0.00
2014,02,19,02,05,0.00
2014,02,19,02,06,2.40
2014,02,19,02,07,2.40
2014,02,19,02,08,0.00
2014,02,19,02,09,0.00
2014,02,19,02,10,0.20
2014,02,19,02,11,0.00
2014,02,19,02,12,0.00
2014,02,19,02,13,0.30
2014,02,19,02,14,0.10
2014,02,19,02,15,0.00
2014,02,19,02,16,0.00
2014,02,19,02,17,0.00
2014,02,19,02,18,0.00
2014,02,19,02,19,0.00
2014,02,19,02,20,1.50
2014,02,19,02,21,0.00
2014,02,19,02,22,0.00
2014,02,19,02,23,0.90
2014,02,19,02,24,0.00
2014,02,19,02,25,0.00
2014,02,19,02,26,0.00
2014,02,19,02,27,0.00
2014,02,19,02,28,1.00
2014,02,19,02,29,4.20
2014,02,19,02,30,3.00
2014,02,19,02,31,0.60
2014,02,19,02,32,0.00
2014,02,19,02,33,4.10
2014,02,19,02,34,1.30
2014,02,19,02,35,0.00
2014,02,19,02,36,0.80
2014,02,19,02,37,0.60
2014,02,19,02,38,0.00
2014,02,19,02,39,0.00
2014,02,19,02,40,0.30
2014,02,19,02,41,0.00
2014,02,19,02,42,0.00
2014,02,19,02,43,0.70
2014,02,19,02,44,0.00
2014,02,19,02,45,0.00
2014,02,19,02,46,0.80
2014,02,19,02,47,1.40
2014,02,19,02,48,0.00
2014,02,19,02,49,0.00
2014,02,19,02,50,0.00
2014,02,19,02,51,0.00
2014,02,19,02,52,0.00
2014,02,19,02,53,0.10
2014,02,19,02,54,0.00
2014,02,19,02,55,0.00
2014,02,19,02,56,0.00
2014,02,19,02,57,0.00
2014,02,19,02,58,0.00
2014,02,19,02,59,0.00
2014,02,19,03,00,0.00
2014,02,19,03,01,0.00
2014,02,19,03,02,0.00
2014,02,19,03,03,0.00
2014,02,19,03,04,0.00
2014,02,19,03,05,0.00
2014,02,19,03,06,0.00
2014,02,19,03,07,0.00
2014,02,19,03,08,0.00
2014,02,19,03,09,0.00
2014,02,19,03,10,0.00
2014,02,19,03,11,0.00
2014,02,19,03,12,0.00
2014,02,19,03,13,0.00
2014,02,19,03,14,0.00
2014,02,19,03,15,0.00
2014,02,19,03,16,0.00
2014,02,19,03,17,0.00
2014,02,19,03,18,0.00
2014,02,19,03,19,0.00
2014,02,19,03,20,0.00
2014,02,19,03,21,0.00
2014,02,19,03,22,0.00
2014,02,19,03,23,0.00
2014,02,19,03,24,0.00
2014,02,19,03,25,0.00
2014,02,19,03,26,0.00
2014,02,19,03,27,0.00
2014,02,19,03,28,0.00
2014,02,19,03,29,0.00
2014,02,19,03,30,0.00
2014,02,19,03,31,0.00
2014,02,19,03,32,0.00
2014,02,19,03,33,0.00
2014,02,19,03,34,0.00
2014,02,19,03,35,0.00
2014,02,19,03,36,0.00
2014,02,19,03,37,0.00
2014,02,19,03,38,0.00
2014,02,19,03,39,0.00
2014,02,19,03,40,0.00
2014,02,19,03,41,0.00
2014,02,19,03,42,0.00
2014,02,19,03,43,0.00
2014,02,19,03,44,0.00
2014,02,19,03,45,0.00
2014,02,19,03,46,0.00
2014,02,19,03,47,0.00
2014,02,19,03,48,0.00
2014,02,19,03,49,0.00
2014,02,19,03,50,0.00
2014,02,19,03,51,0.00
2014,02,19,03,52,0.00
2014,02,19,03,53,0.00
2014,02,19,03,54,0.00
2014,02,19,03,55,0.00
2014,02,19,03,56,0.00
2014,02,19,03,57,0.00
2014,02,19,03,58,0.00
2014,02,19,03,59,0.00
2014,02,19,04,00,0.30
2014,02,19,04,01,3.70
2014,02,19,04,02,1.50
2014,02,19,04,03,0.00
2014,02,19,04,04,0.00
2014,02,19,04,05,0.00
2014,02,19,04,06,0.00
2014,02,19,04,07,0.00
2014,02,19,04,08,0.00
2014,02,19,04,09,0.00
2014,02,19,04,10,0.00
2014,02,19,04,11,0.10
2014,02,19,04,12,0.00
2014,02,19,04,13,0.00
2014,02,19,04,14,0.00
2014,02,19,04,15,1.60
2014,02,19,04,16,1.60
2014,02,19,04,17,8.00
2014,02,19,04,18,7.20
2014,02,19,04,19,0.00
2014,02,19,04,20,0.20
2014,02,19,04,21,0.20
2014,02,19,04,22,0.00
2014,02,19,04,23,0.20
2014,02,19,04,24,0.00
2014,02,19,04,25,0.00
2014,02,19,04,26,0.00
2014,02,19,04,27,0.60
2014,02,19,04,28,2.50
2014,02,19,04,29,2.30
2014,02,19,04,30,1.80
2014,02,19,04,31,1.60
2014,02,19,04,32,0.60
2014,02,19,04,33,1.00
2014,02,19,04,34,12.10
2014,02,19,04,35,8.50
2014,02,19,04,36,3.80
2014,02,19,04,37,1.60
2014,02,19,04,38,0.00
2014,02,19,04,39,0.00
2014,02,19,04,40,0.20
2014,02,19,04,41,2.00
2014,02,19,04,42,4.50
2014,02,19,04,43,10.80
2014,02,19,04,44,4.80
2014,02,19,04,45,0.50
2014,02,19,04,46,3.80
2014,02,19,04,47,6.90
2014,02,19,04,48,5.10
2014,02,19,04,49,2.70
2014,02,19,04,50,0.70
2014,02,19,04,51,5.30
2014,02,19,04,52,2.90
2014,02,19,04,53,0.00
2014,02,19,04,54,1.20
2014,02,19,04,55,6.40
2014,02,19,04,56,1.30
2014,02,19,04,57,1.00
2014,02,19,04,58,0.00
2014,02,19,04,59,0.00
2014,02,19,05,00,0.00
2014,02,19,05,01,0.00
2014,02,19,05,02,0.10
2014,02,19,05,03,0.00
2014,02,19,05,04,0.00
2014,02,19,05,05,4.00
2014,02,19,05,06,0.20
2014,02,19,05,07,0.00
2014,02,19,05,08,0.00
2014,02,19,05,09,0.00
2014,02,19,05,10,0.00
2014,02,19,05,11,0.00
2014,02,19,05,12,0.00
2014,02,19,05,13,0.00
2014,02,19,05,14,0.00
2014,02,19,05,15,0.00
2014,02,19,05,16,0.00
2014,02,19,05,17,0.00
2014,02,19,05,18,0.00
2014,02,19,05,19,0.00
2014,02,19,05,20,0.00
2014,02,19,05,21,0.00
2014,02,19,05,22,0.00
2014,02,19,05,23,0.00
2014,02,19,05,24,0.00
2014,02,19,05,25,0.00
2014,02,19,05,26,0.00
2014,02,19,05,27,0.00
2014,02,19,05,28,0.00
2014,02,19,05,29,0.00
2014,02,19,05,30,0.00
2014,02,19,05,31,0.00
2014,02,19,05,32,0.00
2014,02,19,05,33,0.00
2014,02,19,05,34,0.00
2014,02,19,05,35,0.00
2014,02,19,05,36,0.00
2014,02,19,05,37,0.00
2014,02,19,05,38,0.00
2014,02,19,05,39,0.00
2014,02,19,05,40,0.00
2014,02,19,05,41,0.00
2014,02,19,05,42,0.00
2014,02,19,05,43,0.00
2014,02,19,05,44,0.00
2014,02,19,05,45,0.00
2014,02,19,05,46,0.00
2014,02,19,05,47,0.00
2014,02,19,05,48,0.00
2014,02,19,05,49,0.00
2014,02,19,05,50,0.00
2014,02,19,05,51,0.00
2014,02,19,05,52,0.10
2014,02,19,05,53,0.00
2014,02,19,05,54,0.00
2014,02,19,05,55,0.00
2014,02,19,05,56,0.00
2014,02,19,05,57,0.00
2014,02,19,05,58,0.00
2014,02,19,05,59,0.00
2014,02,19,06,00,0.00
2014,02,19,06,01,0.00
2014,02,19,06,02,0.00
2014,02,19,06,03,0.20
2014,02,19,06,04,0.50
2014,02,19,06,05,0.00
2014,02,19,06,06,0.70
2014,02,19,06,07,0.00
2014,02,19,06,08,0.60
2014,02,19,06,09,0.00
2014,02,19,06,10,0.20
2014,02,19,06,11,0.00
2014,02,19,06,12,0.00
2014,02,19,06,13,0.00
2014,02,19,06,14,0.00
2014,02,19,06,15,0.00
2014,02,19,06,16,0.00
2014,02,19,06,17,0.00
2014,02,19,06,18,0.00
2014,02,19,06,19,0.00
2014,02,19,06,20,0.00
2014,02,19,06,21,0.20
2014,02,19,06,22,0.00
2014,02,19,06,23,0.00
2014,02,19,06,24,0.00
2014,02,19,06,25,0.00
2014,02,19,06,26,0.00
2014,02,19,06,27,0.00
2014,02,19,06,28,0.00
2014,02,19,06,29,0.00
2014,02,19,06,30,0.00
2014,02,19,06,31,0.00
2014,02,19,06,32,0.00
2014,02,19,06,33,0.00
2014,02,19,06,34,0.10
2014,02,19,06,35,0.40
2014,02,19,06,36,0.00
2014,02,19,06,37,0.00
2014,02,19,06,38,0.00
2014,02,19,06,39,0.00
2014,02,19,06,40,0.00
2014,02,19,06,41,0.00
2014,02,19,06,42,0.50
2014,02,19,06,43,0.10
2014,02,19,06,44,0.00
2014,02,19,06,45,0.00
2014,02,19,06,46,0.00
2014,02,19,06,47,0.00
2014,02,19,06,48,0.00
2014,02,19,06,49,0.00
2014,02,19,06,50,0.00
2014,02,19,06,51,0.00
2014,02,19,06,52,0.10
2014,02,19,06,53,0.00
2014,02,19,06,54,0.00
2014,02,19,06,55,0.00
2014,02,19,06,56,0.00
2014,02,19,06,57,0.00
2014,02,19,06,58,0.00
2014,02,19,06,59,0.70
2014,02,19,07,00,0.50
2014,02,19,07,01,0.00
2014,02,19,07,02,0.40
2014,02,19,07,03,0.00
2014,02,19,07,04,0.00
2014,02,19,07,05,0.00
2014,02,19,07,06,0.00
2014,02,19,07,07,0.10
2014,02,19,07,08,1.00
2014,02,19,07,09,0.80
2014,02,19,07,10,1.50
2014,02,19,07,11,0.50
2014,02,19,07,12,0.30
2014,02,19,07,13,2.70
2014,02,19,07,14,0.20
2014,02,19,07,15,4.80
2014,02,19,07,16,7.70
2014,02,19,07,17,1.40
2014,02,19,07,18,0.00
2014,02,19,07,19,0.00
2014,02,19,07,20,0.00
2014,02,19,07,21,0.00
2014,02,19,07,22,1.40
2014,02,19,07,23,0.10
2014,02,19,07,24,1.60
2014,02,19,07,25,0.10
2014,02,19,07,26,0.10
2014,02,19,07,27,0.00
2014,02,19,07,28,0.00
2014,02,19,07,29,0.10
2014,02,19,07,30,0.00
2014,02,19,07,31,1.40
2014,02,19,07,32,3.50
2014,02,19,07,33,3.20
2014,02,19,07,34,6.60
2014,02,19,07,35,4.30
2014,02,19,07,36,5.60
2014,02,19,07,37,6.00
2014,02,19,07,38,5.70
2014,02,19,07,39,5.20
2014,02,19,07,40,3.10
2014,02,19,07,41,5.40
2014,02,19,07,42,7.30
2014,02,19,07,43,4.20
2014,02,19,07,44,0.30
2014,02,19,07,45,0.10
2014,02,19,07,46,0.00
2014,02,19,07,47,0.00
2014,02,19,07,48,0.00
2014,02,19,07,49,2.30
2014,02,19,07,50,1.50
2014,02,19,07,51,1.00
2014,02,19,07,52,1.30
2014,02,19,07,53,1.00
2014,02,19,07,54,3.50
2014,02,19,07,55,5.60
2014,02,19,07,56,6.80
2014,02,19,07,57,1.20
2014,02,19,07,58,0.00
2014,02,19,07,59,1.50
2014,02,19,08,00,3.90
2014,02,19,08,01,2.80
2014,02,19,08,02,2.70
2014,02,19,08,03,4.60
2014,02,19,08,04,3.00
2014,02,19,08,05,3.10
2014,02,19,08,06,2.70
2014,02,19,08,07,5.80
2014,02,19,08,08,2.00
2014,02,19,08,09,0.00
2014,02,19,08,10,0.00
2014,02,19,08,11,0.00
2014,02,19,08,12,5.60
2014,02,19,08,13,6.60
2014,02,19,08,14,7.80
2014,02,19,08,15,13.70
2014,02,19,08,16,7.90
2014,02,19,08,17,2.80
2014,02,19,08,18,8.90
2014,02,19,08,19,6.70
2014,02,19,08,20,7.70
2014,02,19,08,21,4.70
2014,02,19,08,22,6.90
2014,02,19,08,23,4.70
2014,02,19,08,24,5.60
2014,02,19,08,25,10.40
2014,02,19,08,26,8.40
2014,02,19,08,27,6.40
2014,02,19,08,28,7.40
2014,02,19,08,29,7.70
2014,02,19,08,30,12.60
2014,02,19,08,31,7.20
2014,02,19,08,32,9.40
2014,02,19,08,33,5.80
2014,02,19,08,34,7.40
2014,02,19,08,35,8.10
2014,02,19,08,36,10.00
2014,02,19,08,37,8.40
2014,02,19,08,38,4.10
2014,02,19,08,39,10.10
2014,02,19,08,40,8.50
2014,02,19,08,41,9.20
2014,02,19,08,42,7.50
2014,02,19,08,43,11.30
2014,02,19,08,44,1.90
2014,02,19,08,45,3.40
2014,02,19,08,46,4.10
2014,02,19,08,47,4.20
2014,02,19,08,48,6.80
2014,02,19,08,49,10.80
2014,02,19,08,50,8.60
2014,02,19,08,51,5.40
2014,02,19,08,52,5.50
2014,02,19,08,53,7.40
2014,02,19,08,54,4.40
2014,02,19,08,55,5.10
2014,02,19,08,56,5.50
2014,02,19,08,57,3.80
2014,02,19,08,58,3.10
2014,02,19,08,59,9.10
2014,02,19,09,00,2.60
2014,02,19,09,01,8.00
2014,02,19,09,02,5.10
2014,02,19,09,03,7.40
2014,02,19,09,04,5.60
2014,02,19,09,05,8.40
2014,02,19,09,06,1.90
2014,02,19,09,07,6.00
2014,02,19,09,08,5.00
2014,02,19,09,09,4.30
2014,02,19,09,10,5.00
2014,02,19,09,11,6.40
2014,02,19,09,12,6.70
2014,02,19,09,13,3.10
2014,02,19,09,14,2.80
2014,02,19,09,15,3.90
2014,02,19,09,16,11.80
2014,02,19,09,17,8.20
2014,02,19,09,18,6.20
2014,02,19,09,19,9.00
2014,02,19,09,20,10.10
2014,02,19,09,21,5.70
2014,02,19,09,22,5.20
2014,02,19,09,23,5.60
2014,02,19,09,24,4.80
2014,02,19,09,25,8.70
2014,02,19,09,26,12.20
2014,02,19,09,27,4.70
2014,02,19,09,28,4.30
2014,02,19,09,29,11.70
2014,02,19,09,30,7.30
2014,02,19,09,31,9.90
2014,02,19,09,32,3.70
2014,02,19,09,33,6.70
2014,02,19,09,34,6.40
2014,02,19,09,35,11.10
2014,02,19,09,36,11.90
2014,02,19,09,37,5.20
2014,02,19,09,38,11.70
2014,02,19,09,39,11.20
2014,02,19,09,40,6.60
2014,02,19,09,41,15.90
2014,02,19,09,42,10.00
2014,02,19,09,43,12.10
2014,02,19,09,44,12.20
2014,02,19,09,45,8.10
2014,02,19,09,46,9.30
2014,02,19,09,47,14.60
2014,02,19,09,48,12.60
2014,02,19,09,49,14.40
2014,02,19,09,50,8.40
2014,02,19,09,51,8.30
2014,02,19,09,52,12.90
2014,02,19,09,53,11.80
2014,02,19,09,54,14.00
2014,02,19,09,55,18.80
2014,02,19,09,56,19.80
2014,02,19,09,57,11.80
2014,02,19,09,58,8.90
2014,02,19,09,59,13.90
2014,02,19,10,00,8.70
2014,02,19,10,01,8.90
2014,02,19,10,02,10.70
2014,02,19,10,03,6.00
2014,02,19,10,04,3.50
2014,02,19,10,05,9.80
2014,02,19,10,06,5.00
2014,02,19,10,07,4.60
2014,02,19,10,08,2.70
2014,02,19,10,09,1.10
2014,02,19,10,10,4.80
2014,02,19,10,11,3.20
2014,02,19,10,12,0.80
2014,02,19,10,13,13.00
2014,02,19,10,14,7.50
2014,02,19,10,15,13.20
2014,02,19,10,16,10.60
2014,02,19,10,17,16.90
2014,02,19,10,18,10.30
2014,02,19,10,19,9.10
2014,02,19,10,20,10.90
2014,02,19,10,21,7.20
2014,02,19,10,22,9.10
2014,02,19,10,23,11.20
2014,02,19,10,24,7.30
2014,02,19,10,25,15.60
2014,02,19,10,26,19.80
2014,02,19,10,27,16.40
2014,02,19,10,28,10.90
2014,02,19,10,29,11.60
2014,02,19,10,30,11.30
2014,02,19,10,31,18.30
2014,02,19,10,32,13.80
2014,02,19,10,33,11.10
2014,02,19,10,34,10.00
2014,02,19,10,35,10.50
2014,02,19,10,36,15.80
2014,02,19,10,37,9.70
2014,02,19,10,38,9.90
2014,02,19,10,39,15.40
2014,02,19,10,40,8.60
2014,02,19,10,41,13.50
2014,02,19,10,42,7.10
2014,02,19,10,43,10.70
2014,02,19,10,44,6.60
2014,02,19,10,45,10.30
2014,02,19,10,46,8.60
2014,02,19,10,47,9.50
2014,02,19,10,48,20.80
2014,02,19,10,49,14.80
2014,02,19,10,50,8.20
2014,02,19,10,51,9.10
2014,02,19,10,52,5.40
2014,02,19,10,53,6.00
2014,02,19,10,54,3.80
2014,02,19,10,55,10.10
2014,02,19,10,56,6.80
2014,02,19,10,57,10.90
2014,02,19,10,58,12.80
2014,02,19,10,59,8.50
2014,02,19,11,00,6.00
2014,02,19,11,01,6.40
2014,02,19,11,02,6.20
2014,02,19,11,03,9.20
2014,02,19,11,04,17.10
2014,02,19,11,05,12.30
2014,02,19,11,06,12.10
2014,02,19,11,07,6.80
2014,02,19,11,08,8.40
2014,02,19,11,09,7.20
2014,02,19,11,10,12.60
2014,02,19,11,11,7.30
2014,02,19,11,12,10.30
2014,02,19,11,13,9.30
2014,02,19,11,14,2.70
2014,02,19,11,15,3.10
2014,02,19,11,16,9.80
2014,02,19,11,17,8.80
2014,02,19,11,18,11.00
2014,02,19,11,19,10.80
2014,02,19,11,20,6.80
2014,02,19,11,21,5.60
2014,02,19,11,22,8.20
2014,02,19,11,23,6.40
2014,02,19,11,24,4.70
2014,02,19,11,25,5.10
2014,02,19,11,26,14.60
2014,02,19,11,27,8.00
2014,02,19,11,28,10.10
2014,02,19,11,29,12.00
2014,02,19,11,30,13.90
2014,02,19,11,31,20.10
2014,02,19,11,32,13.80
2014,02,19,11,33,16.40
2014,02,19,11,34,6.00
2014,02,19,11,35,12.40
2014,02,19,11,36,11.50
2014,02,19,11,37,9.10
2014,02,19,11,38,9.60
2014,02,19,11,39,2.30
2014,02,19,11,40,2.40
2014,02,19,11,41,7.00
2014,02,19,11,42,1.30
2014,02,19,11,43,0.00
2014,02,19,11,44,1.50
2014,02,19,11,45,8.00
2014,02,19,11,46,10.90
2014,02,19,11,47,10.70
2014,02,19,11,48,4.60
2014,02,19,11,49,8.90
2014,02,19,11,50,7.20
2014,02,19,11,51,4.50
2014,02,19,11,52,1.80
2014,02,19,11,53,3.80
2014,02,19,11,54,8.60
2014,02,19,11,55,7.10
2014,02,19,11,56,10.90
2014,02,19,11,57,7.70
2014,02,19,11,58,8.80
2014,02,19,11,59,10.30
2014,02,19,12,00,8.20
2014,02,19,12,01,13.70
2014,02,19,12,02,5.70
2014,02,19,12,03,6.60
2014,02,19,12,04,4.90
2014,02,19,12,05,0.90
2014,02,19,12,06,0.60
2014,02,19,12,07,0.10
2014,02,19,12,08,0.70
2014,02,19,12,09,5.40
2014,02,19,12,10,2.40
2014,02,19,12,11,3.60
2014,02,19,12,12,2.60
2014,02,19,12,13,0.00
2014,02,19,12,14,0.00
2014,02,19,12,15,0.00
2014,02,19,12,16,0.00
2014,02,19,12,17,0.00
2014,02,19,12,18,0.30
2014,02,19,12,19,1.80
2014,02,19,12,20,3.20
2014,02,19,12,21,2.60
2014,02,19,12,22,0.00
2014,02,19,12,23,0.00
2014,02,19,12,24,0.00
2014,02,19,12,25,0.00
2014,02,19,12,26,0.60
2014,02,19,12,27,2.20
2014,02,19,12,28,2.50
2014,02,19,12,29,6.80
2014,02,19,12,30,8.30
2014,02,19,12,31,3.30
2014,02,19,12,32,3.00
2014,02,19,12,33,8.00
2014,02,19,12,34,9.70
2014,02,19,12,35,6.50
2014,02,19,12,36,5.00
2014,02,19,12,37,1.40
2014,02,19,12,38,1.00
2014,02,19,12,39,3.70
2014,02,19,12,40,8.70
2014,02,19,12,41,11.80
2014,02,19,12,42,8.80
2014,02,19,12,43,7.60
2014,02,19,12,44,13.90
2014,02,19,12,45,5.20
2014,02,19,12,46,11.60
2014,02,19,12,47,8.50
2014,02,19,12,48,4.30
2014,02,19,12,49,10.00
2014,02,19,12,50,11.00
2014,02,19,12,51,7.10
2014,02,19,12,52,11.30
2014,02,19,12,53,8.10
2014,02,19,12,54,8.40
2014,02,19,12,55,11.30
2014,02,19,12,56,15.10
2014,02,19,12,57,13.10
2014,02,19,12,58,14.60
2014,02,19,12,59,6.50
2014,02,19,13,00,11.90
2014,02,19,13,01,6.70
2014,02,19,13,02,6.50
2014,02,19,13,03,5.60
2014,02,19,13,04,6.40
2014,02,19,13,05,11.60
2014,02,19,13,06,11.50
2014,02,19,13,07,8.50
2014,02,19,13,08,7.70
2014,02,19,13,09,6.50
2014,02,19,13,10,3.70
2014,02,19,13,11,6.70
2014,02,19,13,12,1.60
2014,02,19,13,13,4.70
2014,02,19,13,14,3.00
2014,02,19,13,15,11.60
2014,02,19,13,16,15.90
2014,02,19,13,17,8.00
2014,02,19,13,18,9.30
2014,02,19,13,19,8.00
2014,02,19,13,20,11.90
2014,02,19,13,21,5.50
2014,02,19,13,22,5.20
2014,02,19,13,23,3.50
2014,02,19,13,24,8.90
2014,02,19,13,25,10.60
2014,02,19,13,26,9.20
2014,02,19,13,27,3.10
2014,02,19,13,28,5.90
2014,02,19,13,29,9.80
2014,02,19,13,30,5.60
2014,02,19,13,31,14.30
2014,02,19,13,32,10.30
2014,02,19,13,33,6.80
2014,02,19,13,34,10.40
2014,02,19,13,35,6.20
2014,02,19,13,36,9.40
2014,02,19,13,37,9.20
2014,02,19,13,38,6.20
2014,02,19,13,39,7.90
2014,02,19,13,40,4.90
2014,02,19,13,41,3.00
2014,02,19,13,42,7.20
2014,02,19,13,43,11.30
2014,02,19,13,44,8.30
2014,02,19,13,45,6.40
2014,02,19,13,46,12.90
2014,02,19,13,47,2.70
2014,02,19,13,48,5.80
2014,02,19,13,49,6.00
2014,02,19,13,50,10.10
2014,02,19,13,51,1.10
2014,02,19,13,52,1.90
2014,02,19,13,53,10.80
2014,02,19,13,54,7.70
2014,02,19,13,55,5.90
2014,02,19,13,56,7.70
2014,02,19,13,57,4.30
2014,02,19,13,58,9.20
2014,02,19,13,59,5.50
2014,02,19,14,00,3.10
2014,02,19,14,01,5.80
2014,02,19,14,02,6.30
2014,02,19,14,03,4.60
2014,02,19,14,04,11.90
2014,02,19,14,05,1.50
2014,02,19,14,06,3.50
2014,02,19,14,07,0.10
2014,02,19,14,08,2.30
2014,02,19,14,09,5.40
2014,02,19,14,10,0.10
2014,02,19,14,11,0.00
2014,02,19,14,12,0.00
2014,02,19,14,13,0.10
2014,02,19,14,14,3.60
2014,02,19,14,15,7.80
2014,02,19,14,16,7.80
2014,02,19,14,17,0.20
2014,02,19,14,18,0.70
2014,02,19,14,19,0.80
2014,02,19,14,20,0.00
2014,02,19,14,21,0.00
2014,02,19,14,22,0.00
2014,02,19,14,23,0.00
2014,02,19,14,24,0.00
2014,02,19,14,25,0.00
2014,02,19,14,26,0.00
2014,02,19,14,27,0.00
2014,02,19,14,28,0.00
2014,02,19,14,29,0.00
2014,02,19,14,30,0.00
2014,02,19,14,31,0.00
2014,02,19,14,32,0.00
2014,02,19,14,33,0.00
2014,02,19,14,34,0.00
2014,02,19,14,35,0.00
2014,02,19,14,36,0.00
2014,02,19,14,37,0.00
2014,02,19,14,38,0.00
2014,02,19,14,39,0.00
2014,02,19,14,40,0.00
2014,02,19,14,41,0.00
2014,02,19,14,42,0.00
2014,02,19,14,43,0.00
2014,02,19,14,44,0.00
2014,02,19,14,45,0.00
2014,02,19,14,46,0.00
2014,02,19,14,47,0.00
2014,02,19,14,48,0.00
2014,02,19,14,49,0.00
2014,02,19,14,50,0.00
2014,02,19,14,51,0.00
2014,02,19,14,52,1.90
2014,02,19,14,53,0.00
2014,02,19,14,54,0.00
2014,02,19,14,55,0.00
2014,02,19,14,56,0.00
2014,02,19,14,57,0.00
2014,02,19,14,58,0.00
2014,02,19,14,59,2.30
2014,02,19,15,00,4.10
2014,02,19,15,01,6.00
2014,02,19,15,02,5.80
2014,02,19,15,03,1.80
2014,02,19,15,04,3.40
2014,02,19,15,05,3.80
2014,02,19,15,06,0.00
2014,02,19,15,07,0.00
2014,02,19,15,08,1.50
2014,02,19,15,09,0.80
2014,02,19,15,10,0.40
2014,02,19,15,11,0.00
2014,02,19,15,12,0.00
2014,02,19,15,13,0.00
2014,02,19,15,14,0.00
2014,02,19,15,15,0.00
2014,02,19,15,16,0.00
2014,02,19,15,17,0.00
2014,02,19,15,18,0.00
2014,02,19,15,19,0.00
2014,02,19,15,20,0.00
2014,02,19,15,21,0.00
2014,02,19,15,22,0.00
2014,02,19,15,23,0.00
2014,02,19,15,24,0.00
2014,02,19,15,25,0.00
2014,02,19,15,26,0.00
2014,02,19,15,27,0.00
2014,02,19,15,28,0.00
2014,02,19,15,29,0.10
2014,02,19,15,30,0.80
2014,02,19,15,31,0.00
2014,02,19,15,32,0.00
2014,02,19,15,33,0.00
2014,02,19,15,34,0.00
2014,02,19,15,35,0.00
2014,02,19,15,36,0.00
2014,02,19,15,37,0.00
2014,02,19,15,38,0.00
2014,02,19,15,39,0.00
2014,02,19,15,40,0.00
2014,02,19,15,41,0.00
2014,02,19,15,42,0.00
2014,02,19,15,43,0.00
2014,02,19,15,44,0.00
2014,02,19,15,45,0.00
2014,02,19,15,46,0.10
2014,02,19,15,47,0.00
2014,02,19,15,48,0.00
2014,02,19,15,49,0.00
2014,02,19,15,50,0.00
2014,02,19,15,51,0.00
2014,02,19,15,52,0.00
2014,02,19,15,53,0.00
2014,02,19,15,54,0.00
2014,02,19,15,55,0.00
2014,02,19,15,56,0.00
2014,02,19,15,57,0.00
2014,02,19,15,58,0.00
2014,02,19,15,59,0.00
2014,02,19,16,00,0.00
2014,02,19,16,01,0.00
2014,02,19,16,02,0.10
2014,02,19,16,03,2.40
2014,02,19,16,04,0.40
2014,02,19,16,05,0.00
2014,02,19,16,06,0.10
2014,02,19,16,07,0.00
2014,02,19,16,08,0.00
2014,02,19,16,09,0.10
2014,02,19,16,10,0.00
2014,02,19,16,11,0.00
2014,02,19,16,12,1.70
2014,02,19,16,13,3.10
2014,02,19,16,14,6.00
2014,02,19,16,15,5.80
2014,02,19,16,16,3.60
2014,02,19,16,17,0.00
2014,02,19,16,18,0.00
2014,02,19,16,19,0.00
2014,02,19,16,20,0.00
2014,02,19,16,21,0.00
2014,02,19,16,22,0.00
2014,02,19,16,23,0.00
2014,02,19,16,24,0.00
2014,02,19,16,25,0.00
2014,02,19,16,26,0.00
2014,02,19,16,27,0.00
2014,02,19,16,28,0.00
2014,02,19,16,29,0.00
2014,02,19,16,30,0.00
2014,02,19,16,31,0.00
2014,02,19,16,32,0.00
2014,02,19,16,33,0.00
2014,02,19,16,34,0.00
2014,02,19,16,35,0.00
2014,02,19,16,36,0.00
2014,02,19,16,37,0.00
2014,02,19,16,38,0.00
2014,02,19,16,39,0.00
2014,02,19,16,40,0.00
2014,02,19,16,41,0.00
2014,02,19,16,42,0.00
2014,02,19,16,43,0.00
2014,02,19,16,44,0.00
2014,02,19,16,45,0.00
2014,02,19,16,46,0.00
2014,02,19,16,47,0.00
2014,02,19,16,48,0.00
2014,02,19,16,49,0.00
2014,02,19,16,50,0.00
2014,02,19,16,51,0.00
2014,02,19,16,52,0.00
2014,02,19,16,53,0.00
2014,02,19,16,54,2.30
2014,02,19,16,55,0.10
2014,02,19,16,56,0.00
2014,02,19,16,57,1.00
2014,02,19,16,58,0.60
2014,02,19,16,59,0.00
2014,02,19,17,00,0.00
2014,02,19,17,01,0.00
2014,02,19,17,02,0.00
2014,02,19,17,03,0.00
2014,02,19,17,04,0.00
2014,02,19,17,05,0.00
2014,02,19,17,06,0.00
2014,02,19,17,07,0.00
2014,02,19,17,08,0.00
2014,02,19,17,09,0.00
2014,02,19,17,10,0.00
2014,02,19,17,11,0.00
2014,02,19,17,12,0.10
2014,02,19,17,13,0.00
2014,02,19,17,14,0.00
2014,02,19,17,15,0.00
2014,02,19,17,16,0.00
2014,02,19,17,17,0.00
2014,02,19,17,18,0.00
2014,02,19,17,19,0.00
2014,02,19,17,20,0.00
2014,02,19,17,21,0.00
2014,02,19,17,22,0.00
2014,02,19,17,23,0.00
2014,02,19,17,24,0.00
2014,02,19,17,25,0.00
2014,02,19,17,26,0.00
2014,02,19,17,27,0.00
2014,02,19,17,28,0.00
2014,02,19,17,29,0.00
2014,02,19,17,30,0.00
2014,02,19,17,31,0.00
2014,02,19,17,32,0.00
2014,02,19,17,33,0.00
2014,02,19,17,34,0.00
2014,02,19,17,35,0.00
2014,02,19,17,36,0.00
2014,02,19,17,37,0.00
2014,02,19,17,38,0.00
2014,02,19,17,39,0.00
2014,02,19,17,40,0.00
2014,02,19,17,41,0.00
2014,02,19,17,42,0.00
2014,02,19,17,43,0.00
2014,02,19,17,44,0.00
2014,02,19,17,45,0.00
2014,02,19,17,46,0.00
2014,02,19,17,47,0.00
2014,02,19,17,48,0.00
2014,02,19,17,49,0.00
2014,02,19,17,50,0.00
2014,02,19,17,51,0.00
2014,02,19,17,52,0.00
2014,02,19,17,53,0.00
2014,02,19,17,54,0.00
2014,02,19,17,55,0.00
2014,02,19,17,56,0.00
2014,02,19,17,57,0.00
2014,02,19,17,58,0.00
2014,02,19,17,59,0.00
2014,02,19,18,00,0.00
2014,02,19,18,01,0.00